Hourly Data Report for October 29, 2013

All times are specified in Local Standard Time (LST). Add 1 hour to adjust for Daylight Saving Time where and when it is observed.

TORONTO INTL A
ONTARIO

43°40'36.000" N
79°37'50.000" W
173.40 m
6158731
71624
YYZ

Download Data

Hourly Data (October 2013)
Hourly Data Report for October 29, 2013
Temp Definition
°C
Dew Point Temp Definition
°C
Rel Hum Definition
%
Wind Dir Definition
10's deg

Wind Spd Definition
km/h
Visibility Definition
km
Stn Press Definition
kPa
Hmdx Definition


Wind Chill Definition


Weather Definition


TIME
00:00 Legend Double Dagger -0.8 -5.1 73 36 12 24.1 100.92   -5 LegendNANA
01:00 Legend Double Dagger -1.5 -5.2 76 1 11 24.1 100.96   -5 Mainly Clear
02:00 Legend Double Dagger -1.3 -5.4 74 36 8 24.1 100.95   -4 LegendNANA
03:00 Legend Double Dagger -2.0 -5.5 77 36 10 24.1 100.96   -6 LegendNANA
04:00 Legend Double Dagger -2.2 -5.9 76 36 10 24.1 100.98   -6 Mainly Clear
05:00 Legend Double Dagger -2.7 -5.7 80 1 10 24.1 101.01   -7 LegendNANA
06:00 Legend Double Dagger -2.3 -5.5 79 36 9 24.1 101.01   -6 LegendNANA
07:00 Legend Double Dagger -2.7 -5.5 81 36 9 24.1 101.06   -6 Mainly Clear
08:00 Legend Double Dagger -0.7 -4.8 74 36 10 24.1 101.12   -4 LegendNANA
09:00 Legend Double Dagger 1.3 -4.4 66 4 9 24.1 101.09     LegendNANA
10:00 Legend Double Dagger 3.7 -5.0 53 3 5 24.1 101.09     Mainly Clear
11:00 Legend Double Dagger 4.8 -2.5 59 7 10 24.1 101.11     LegendNANA
12:00 Legend Double Dagger 6.6 0.1 63 11 7 24.1 101.00     LegendNANA
13:00 Legend Double Dagger 6.3 -1.8 56 17 12 24.1 100.91     Mainly Clear
14:00 Legend Double Dagger 6.2 -1.0 60 11 15 24.1 100.82     LegendNANA
15:00 Legend Double Dagger 5.2 -2.2 59 15 12 24.1 100.79     LegendNANA
16:00 Legend Double Dagger 4.4 -1.8 64 12 10 24.1 100.77     Cloudy
17:00 Legend Double Dagger 4.0 -1.8 66 14 10 24.1 100.73     LegendNANA
18:00 Legend Double Dagger 3.8 -1.2 70 15 10 24.1 100.73     LegendNANA
19:00 Legend Double Dagger 4.1 -1.9 65 13 7 24.1 100.72     Cloudy
20:00 Legend Double Dagger 4.3 -1.3 67 14 7 24.1 100.64     LegendNANA
21:00 Legend Double Dagger 4.7 -0.5 69 15 7 24.1 100.59     LegendNANA
22:00 Legend Double Dagger 4.8 0.4 73 19 4 24.1 100.57     Cloudy
23:00 Legend Double Dagger 4.7 1.4 79 13 6 16.1 100.49     Rain

Notes on Data Quality.

Legend

  • E = Estimated
  • M = Missing
  • NA = Not Available
  • ‡ = Partner data that is not subject to review by the National Climate Archives
Date modified: